Weather in Olga

Russia / Primorsky Krai     43°44′43″N   135°17′34″E
temp.,
°C
wind,
m/s
gust,
m/s
humid.,
%
clouds,
%
prec.,
mm/h
press.,
hPa
HPBL,
m
20 january, thu
thu2001:00−14nw36715 0.0 1022244
04:00−15nw36715 0.0 1022209
07:00−16nw46711 0.0 1023214
10:00−15nw48615 0.0 1024320
13:00−11nw712431 0.0 1023813
16:00−11nw611462 0.0 1023851
19:00−13nw412570 0.0 1025714
22:00−15nw410610 0.0 1026484
21 january, fri
fri2101:00−16nw47650 0.0 1027332
04:00−17nw46700 0.0 1028232
07:00−18nw46720 0.0 1029191
10:00−17nw45610 0.0 1030215
13:00−11wnw35450 0.0 1029413
16:00−8nw37410 0.0 1027646
19:00−12nw36610 0.0 1028283
22:00−14nw34710 0.0 1028155
22 january, sat
sat2201:00−15nw34690 0.0 1028122
04:00−15nw34670 0.0 1028105
07:00−15nw34660 0.0 102899
10:00−13nw34520 0.0 1028124
13:00−7nw23321 0.0 1027392
16:00−4nw14325 0.0 1026682
19:00−9nw116548 0.0 102638
22:00−11nw22729 0.0 102766
23 january, sun
sun2301:00−12nw237086 0.0 102776
04:00−12nw236398 0.0 102592
07:00−12nw2360100 0.0 102491
10:00−10nw2351100 0.0 1024126
13:00−5nw2432100 0.0 1023426
16:00−4nw483597 0.0 1021724
19:00−8nw310540 0.0 1023495
22:00−11nw310660 0.0 1024411
24 january, mon
mon2401:00−12nw36700 0.0 1024213
04:00−13nw36705 0.0 1024201
07:00−13nw35715 0.0 1024134
10:00−12nw35625 0.0 1025161
13:00−6nw374248 0.0 1023496
16:00−3nw274098 0.0 1022649
19:00−7nw226589 0.0 102251
22:00−9nw2373100 0.0 102373